Location: Unspecified
(0.0000°N, 0.0000°E)
Time: 18:50:46
(UTC+02:00)

Cosmos 1295 Rocket - Visible Passes

Search period start: 30 July 2016 00:00
Search period end: 09 August 2016 00:00
Orbit: 944 x 994 km, 82.9° (Epoch: 29 July)

Date Brightness Start Highest point End Pass type
(mag) Time Alt. Az. Time Alt. Az. Time Alt. Az.
30 Jul 6.1 21:54:04 19° NE 21:54:04 19° NE 21:56:03 10° NNE visible
30 Jul 7.1 23:38:30 13° NW 23:38:30 13° NW 23:39:32 10° NW visible
31 Jul 5.2 22:16:08 41° NNE 22:16:08 41° NNE 22:20:04 10° N visible
01 Aug 6.3 20:53:29 10° E 20:53:29 10° E 20:53:41 10° E visible
01 Aug 5.1 22:37:53 52° WNW 22:37:53 52° WNW 22:43:18 10° N visible
02 Aug 5.4 21:14:41 24° ESE 21:15:37 25° E 21:20:36 10° NE visible
02 Aug 6.3 22:59:01 24° WSW 23:00:32 27° W 23:05:40 10° NNW visible
03 Aug 4.6 21:33:10 11° SSE 21:39:00 52° E 21:45:04 10° NNE visible
03 Aug 7.2 23:21:44 10° WSW 23:23:53 12° W 23:26:04 10° WNW visible
04 Aug 4.6 21:56:02 10° S 22:02:23 78° W 22:08:39 10° N visible
05 Aug 5.8 20:36:50 10° SE 20:40:49 17° E 20:44:45 10° NE visible
05 Aug 5.8 22:19:59 10° SSW 22:25:44 37° W 22:31:28 10° NNW visible
06 Aug 5.0 20:58:27 10° SSE 21:04:13 37° E 21:09:53 10° NNE visible
06 Aug 6.9 22:45:05 10° SW 22:49:06 18° W 22:53:07 10° NW visible
07 Aug 4.4 21:21:16 10° S 21:27:36 76° E 21:33:50 10° N visible
08 Aug 5.2 21:44:50 10° SSW 21:50:57 52° W 21:57:02 10° NNW visible
